Regional Weather Roundup
Issued by NWS

Home | Current Version | Previous Version | Text Only | Print | Product List | Glossary Off
Versions: 1 2 3 4 5 6 7 8 9 10 11 12 13 14 15 16 17 18 19 20 21 22 23 24 25 26 27 28 29 30 31 32 33 34 35 36 37 38 39 40 41 42 43 44 45 46 47 48 49 50

000
ASUS45 KPSR 232110
RWRAZ

ARIZONA HOURLY REGIONAL WEATHER ROUNDUP
NATIONAL WEATHER SERVICE PHOENIX AZ
200 PM MST SUN APR 23 2017

NOTE: FAIR INDICATES FEW OR NO CLOUDS BELOW 12,000 FEET WITH NO
SIGNIFICANT WEATHER AND/OR OBSTRUCTIONS TO VISIBILITY.

AZZ001>003-036-232200-
NORTHWEST ARIZONA

CITY           SKY/WX    TMP DP  RH WIND       PRES   REMARKS
BULLHEAD CITY  SUNNY     95  21   7 S17G28    29.66F
KINGMAN        MOSUNNY   86  19   8 SW32G47   29.81F
$$

AZZ004>008-015-016-018-232200-
NORTH CENTRAL ARIZONA

CITY           SKY/WX    TMP DP  RH WIND       PRES   REMARKS
GRAND CANYON   CLOUDY    72  22  15 SW22G38   29.98F
WILLIAMS       PTSUNNY   68  18  14 SW24G35   30.00F
PRESCOTT       PTSUNNY   76  19  11 SW21G35   29.95F
FLAGSTAFF      PTSUNNY   68  19  15 SW32G46   30.01F
PAYSON         SUNNY     77  28  16 S10G18    30.02F
PAGE           CLOUDY    75  23  14 N8        29.81F
$$

AZZ009>014-017-232200-
NORTHEAST ARIZONA

CITY           SKY/WX    TMP DP  RH WIND       PRES   REMARKS
WINSLOW        MOSUNNY   81  19  10 S22G35    29.91F
SAINT JOHNS    SUNNY     79  18  10 W22G33    29.98F
WINDOW ROCK    SUNNY     75  19  12 SW23G36   30.02F
SHOW LOW       SUNNY     72  19  14 S25G35    30.06F
$$

AZZ540-542>544-546-548-232200-
GREATER PHOENIX AREA

CITY           SKY/WX    TMP DP  RH WIND       PRES   REMARKS
PHOENIX        PTSUNNY   97  23   7 S8G16     29.73F
BUCKEYE        MOSUNNY   93  27   9 SE8       29.74F
GLENDALE       PTSUNNY   97  23   7 SW3       29.76F
LUKE AFB       MOSUNNY   94  24   8 SW3       29.73F
DEER VALLEY    SUNNY     93  23   8 S8G18     29.75F
SCOTTSDALE     SUNNY     94  24   8 CALM      29.77F
MESA-FALCON    MOSUNNY  N/A N/A N/A S17       29.77F
MESA-GATEWAY   MOSUNNY   93  28  10 VRB5      29.77F
CHANDLER       SUNNY     95  18   6 S8        29.75F
$$

AZZ539-553-232200-
SOUTHWEST MARICOPA COUNTY AND PINAL COUNTY

CITY           SKY/WX    TMP DP  RH WIND       PRES   REMARKS
CASA GRANDE    SUNNY     94  24   8 CALM      29.77F
GILA BEND      FAIR     100  17   5 S14       29.70F
$$

AZZ503-504-507>509-232200-
SOUTHEAST ARIZONA

CITY           SKY/WX    TMP DP  RH WIND       PRES   REMARKS
TUCSON         SUNNY     96  15   5 W7        29.84F
DAVIS-MONTHAN  MOSUNNY   94  18   6 NW10      29.83F
RYAN FIELD     SUNNY     95  19   6 N8G22     29.83F
NOGALES        SUNNY     92  15   6 SW20G25   29.94F
SIERRA VISTA   SUNNY     89   7   4 SW9G18    29.99S
DOUGLAS        SUNNY     88  21   8 VRB7      29.94F
SAFFORD        SUNNY     84  32  15 SE6G22    29.92F
$$

AZZ532-232200-
SOUTHWEST ARIZONA

CITY           SKY/WX    TMP DP  RH WIND       PRES   REMARKS
YUMA           MOSUNNY   95  33  11 W9        29.72F
$$

CAZ041-043-047-048-061-525>527-560>570-232200-
SOUTHERN CALIFORNIA

CITY           SKY/WX    TMP DP  RH WIND       PRES   REMARKS
DOWNTOWN L.A.  SUNNY     74  57  55 VRB5      29.85S
L.A. AIRPORT   MOSUNNY   68  56  65 W16       29.87S
SAN DIEGO      MOSUNNY   68  55  63 SW10      29.90F
BURBANK        SUNNY     78  50  37 S12       29.84F
ONTARIO        MOSUNNY   83  44  25 W13G22    29.84S
RIVERSIDE      SUNNY     83  48  29 W15G21    29.82F
PALM SPRINGS   SUNNY     98  30   9 NW17G26   29.70F
EL CENTRO NAS  LGT RAIN  98  24   7 W24G30    29.72S
IMPERIAL       SUNNY     97  39  13 W18       29.69F
BLYTHE         MOSUNNY   97  17   5 SW22G31   29.70F
NEEDLES        SUNNY     98  17   5 SW17G32   29.69F
$$

NVZ020-UTZ003-232200-
SOUTHERN NEVADA-UTAH

CITY           SKY/WX    TMP DP  RH WIND       PRES   REMARKS
LAS VEGAS      MOSUNNY   89  17   7 SW22G31   29.68R
SALT LAKE CITY CLOUDY    63  39  41 NW10      29.79F
$$

NMZ009-TXZ055-232200-
NEW MEXICO-WEST TEXAS

CITY           SKY/WX    TMP DP  RH WIND       PRES   REMARKS
ALBUQUERQUE    MOSUNNY   72  32  23 SW12      30.03F
EL PASO        MOSUNNY   77  27  15 S5        30.03F
$$


........................KEY........................
SKY/WX - SKY CONDITION/WEATHER
TMP    - TEMPERATURE IN FAHRENHEIT
DP     - DEW POINT IN FAHRENHEIT
RH     - RELATIVE HUMIDITY IN PERCENT
WIND   - DIRECTION AND SPEED IN MILES PER HOUR (MPH)
VRB    - VARIABLE WIND DIRECTION
PRES   - MEAN SEA LEVEL PRESSURE IN INCHES OF MERCURY
         F - FALLING PRESSURE   R - RISING PRESSURE
         S - STEADY PRESSURE
VSB    - VISIBILITY IN MILES
HX     - HEAT INDEX IN FAHRENHEIT
WCI    - WIND CHILL INDEX IN FAHRENHEIT
TC     - TEMPERATURE IN CELSIUS WHICH IS ALSO KNOWN AS
         TEMPERATURE IN CENTIGRADE
AFB    - AIR FORCE BASE
         LUKE AFB IS LUKE AIR FORCE BASE
         DAVIS-MONTHAN IS DAVIS-MONTHAN AIR FORCE BASE
NAS    - NAVAL AIR STATION
         EL CENTRO NAS IS EL CENTRO NAVAL AIR STATION
N/A    - NOT AVAILABLE




USA.gov is the U.S. government's official web portal to all federal, state and local government web resources and services.